[[{"header":{"parameterUnit":"m.s-1","parameterCategory":2,"la1":30.2991,"la2":30.254,"lo1":-89.0895,"lo2":-89.0444,"dy":0.0017,"dx":0.0017,"nx":28,"ny":28,"refTime":"2024-03-28T09:00:00:Z","depth":"0","parameterNumber":2,"parameterNumberName":"U-component_of_CURRENTS"},"data":[0,0,0,0,0,0,0,0,0,0,0,0,0,0,0,0,0,0,0,0,0,0,0,0,0,0,0,0,0,0,0,0,0,0,0,0,0,0,0,0,0,0,0,0,0,0,0,0,0,0,0,0,0,0,0,0,0,0,0.2419,0.2419,0,0.2419,0.2419,0.2419,0.2391,0.239,0.239,0.2389,0.2368,0.2368,0.2368,0,0,0,0,0,0,0,0,0,0,0,0,0,0.2427,0.2427,0.2419,0.2419,0.242,0.242,0.2419,0.2419,0.2391,0.239,0.239,0.2389,0.2368,0.2368,0.2368,0,0,0,0,0,0,0,0,0,0,0,0,0,0.2423,0.2427,0.2419,0.2407,0.2406,0.242,0.2419,0.2419,0.2391,0.239,0.2389,0.2389,0.2368,0.2368,0.2368,0.2383,0,0,0.2367,0.2367,0,0,0,0,0,0,0,0,0.2423,0.2422,0.2409,0.2408,0.2407,0.2406,0.2414,0.2407,0.2391,0.2395,0.2389,0.2388,0.2381,0.238,0.2379,0.2382,0.2381,0.2367,0.2367,0.2367,0.2367,0,0,0,0,0,0,0,0.2424,0.2423,0.2417,0.2409,0.2408,0.2413,0.2411,0.2413,0.239,0.2394,0.2393,0.2397,0.238,0.2379,0.2378,0.2381,0.2367,0.2367,0.2367,0.2367,0.2405,0.2406,0,0,0,0,0,0,0.2427,0.2423,0.2417,0.2417,0.2416,0.2414,0.2412,0.2406,0.239,0.2388,0.2397,0.2395,0.2379,0.2378,0.2377,0.241,0.2367,0.2367,0.2367,0.2404,0.2406,0.2407,0,0,0,0,0,0,0.2427,0.2426,0.2417,0.2422,0.2422,0.2415,0.2408,0.2406,0.2408,0.2393,0.239,0.2401,0.2379,0.2377,0.2382,0.2408,0.2367,0.2367,0.2403,0.2405,0.2406,0.2465,0,0,0,0,0,0,0.2427,0.2426,0.2427,0.2422,0.2422,0.2427,0.2409,0.2407,0.2412,0.2409,0.2396,0.2393,0.2378,0.2382,0.2382,0.2407,0.2367,0.2402,0.2404,0.2406,0.2462,0.2469,0.2475,0,0,0,0,0,0.2427,0.2432,0.2427,0.2427,0.2422,0.2428,0.2428,0.2419,0.2413,0.2416,0.2409,0.2394,0.2395,0.2383,0.2382,0.2408,0.2401,0.2403,0.2406,0.2459,0.2467,0.2474,0,0,0,0,0,0,0.2436,0.243,0.2424,0.2426,0.2428,0.2423,0.2431,0.2426,0.2424,0.2423,0.2405,0.2402,0.2419,0.2405,0.2392,0.2425,0.2397,0.2399,0.2438,0.2445,0.2452,0.248,0.2367,0,0,0,0,0,0.244,0.244,0.2437,0.244,0.2443,0.244,0.2444,0.2438,0.2436,0.2433,0.2426,0.2422,0.2429,0.2429,0.2429,0.2446,0.2462,0.2463,0.2469,0.2474,0.2497,0.2554,0.2568,0.2415,0.2415,0.2415,0,0,0.2445,0.2443,0.2442,0.2443,0.2445,0.2457,0.2439,0.2449,0.2462,0.2433,0.2449,0.2445,0.2439,0.2458,0.2464,0.2448,0.2523,0.2477,0.2482,0.2502,0.2558,0.2573,0.2587,0.2416,0.2416,0.2416,0,0,0.246,0.2454,0.2461,0.2468,0.2476,0.2475,0.2481,0.2481,0.2484,0.2496,0.2487,0.2502,0.2498,0.2509,0.2512,0.2556,0.2556,0.255,0.2604,0.2659,0.2672,0.2685,0.2711,0.2725,0.2551,0.2551,0.2551,0,0.2467,0.247,0.2466,0.2482,0.2493,0.2486,0.2503,0.2511,0.2513,0.2534,0.2507,0.2545,0.2529,0.2579,0.2588,0.2573,0.2596,0.2574,0.2669,0.2682,0.2693,0.2718,0.2733,0.2554,0.2554,0.2554,0.2554,0,0.2488,0.2496,0.2505,0.2518,0.2532,0.2544,0.2556,0.2576,0.2577,0.2588,0.2633,0.2622,0.2649,0.2644,0.2626,0.2704,0.269,0.2673,0.2653,0.2713,0.2734,0.2748,0.2559,0.2558,0.2557,0.2556,0,0,0.2483,0.2511,0.2513,0.2527,0.255,0.2561,0.2603,0.2638,0.2679,0.2686,0.2742,0.2753,0.276,0.2766,0.2754,0.2794,0.2876,0.2771,0.2773,0.2804,0.299,0.2938,0.2948,0.2882,0.2885,0.2888,0.2967,0,0.2496,0.2521,0.254,0.2572,0.2584,0.2613,0.2652,0.2692,0.2722,0.2776,0.2797,0.2833,0.2803,0.2815,0.2861,0.2879,0.2921,0.2856,0.2923,0.2925,0.2878,0.2966,0.2876,0.2936,0.2981,0.2983,0.2985,0,0.25,0.2517,0.2543,0.2594,0.2605,0.263,0.2703,0.2742,0.2827,0.2859,0.2923,0.2932,0.3001,0.2951,0.3047,0.301,0.3013,0.3018,0.3021,0.2969,0.2902,0.2887,0.2961,0.2932,0.3007,0.3005,0.3004,0,0.2471,0.2519,0.2536,0.2551,0.2609,0.2641,0.2679,0.2763,0.281,0.2917,0.2961,0.3047,0.3081,0.3128,0.3133,0.3103,0.3226,0.318,0.3138,0.3133,0.3069,0.3052,0.3131,0.3255,0.3255,0.3255,0.3254,0,0.246,0.2473,0.2522,0.2529,0.2571,0.2625,0.2688,0.2755,0.2852,0.2922,0.2996,0.3062,0.3131,0.3191,0.3191,0.3223,0.3278,0.318,0.3169,0.3082,0.3067,0.3046,0.302,0.3257,0.3257,0.3256,0.3256,0,0.2412,0.2441,0.2466,0.2529,0.2549,0.2579,0.2668,0.2725,0.2827,0.2924,0.2957,0.3095,0.3192,0.3238,0.3317,0.3287,0.3238,0.3302,0.3182,0.3155,0.3068,0.3047,0.2964,0.2872,0.3282,0.3282,0.3281,0,0.2385,0.2391,0.2448,0.2466,0.2489,0.2542,0.2583,0.2693,0.2758,0.2935,0.2979,0.311,0.3192,0.3302,0.3297,0.3317,0.3226,0.3219,0.3143,0.3086,0.3056,0.2905,0.2822,0.3075,0.3073,0.3071,0.307,0,0.2342,0.2362,0.2386,0.2419,0.2455,0.2493,0.2561,0.26,0.2744,0.2829,0.2954,0.3034,0.3173,0.3184,0.3225,0.3214,0.3087,0.3182,0.3172,0.2957,0.275,0.2647,0.2982,0.3054,0.3056,0.3057,0.3058,0.3058,0.2311,0.2316,0.2351,0.2368,0.2406,0.2423,0.2423,0.2511,0.2583,0.2691,0.2844,0.294,0.3061,0.312,0.3086,0.3024,0.2973,0.2957,0.2954,0.2819,0.2681,0.297,0.2994,0.2995,0.2996,0.2997,0.2997,0,0.2265,0.2275,0.23,0.2308,0.2302,0.2347,0.2391,0.238,0.241,0.2567,0.2653,0.2807,0.2838,0.2909,0.2924,0.284,0.2663,0.2779,0.258,0.2522,0.285,0.2795,0.2716,0.2716,0.2716,0.2716,0.2716,0.2716,0.2247,0.2238,0.2237,0.2192,0.2192,0.2151,0.2143,0.2153,0.2228,0.232,0.2424,0.2548,0.279,0.2876,0.2832,0.2747,0.2557,0.2427,0.2409,0.2706,0.2722,0.2738,0.2683,0.2582,0.2582,0.1966,0.1962,0.1959]},{"header":{"parameterUnit":"m.s-1","parameterCategory":2,"la1":30.2991,"la2":30.254,"lo1":-89.0895,"lo2":-89.0444,"dy":0.0017,"dx":0.0017,"nx":28,"ny":28,"refTime":"2024-03-28T09:00:00:Z","depth":"0","parameterNumber":3,"parameterNumberName":"V-component_of_CURRENTS"},"data":[0,0,0,0,0,0,0,0,0,0,0,0,0,0,0,0,0,0,0,0,0,0,0,0,0,0,0,0,0,0,0,0,0,0,0,0,0,0,0,0,0,0,0,0,0,0,0,0,0,0,0,0,0,0,0,0,0,0,0.0091,0.0091,0,0.0071,0.0071,0.0071,0.005,0.005,0.005,0.005,0.0014,0.0014,0.0013,0,0,0,0,0,0,0,0,0,0,0,0,0,0.0066,0.0067,0.0091,0.0091,0.0091,0.0071,0.0071,0.0071,0.005,0.005,0.005,0.005,0.0015,0.0014,0.0013,0,0,0,0,0,0,0,0,0,0,0,0,0,0.0063,0.0067,0.0091,0.0079,0.0078,0.0071,0.0071,0.007,0.005,0.005,0.005,0.005,0.0015,0.0014,0.0013,0.001,0,0,0.0009,0.0008,0,0,0,0,0,0,0,0,0.0064,0.0064,0.0081,0.008,0.0079,0.0064,0.0049,0.005,0.005,0.0059,0.005,0.0049,0.0031,0.0028,0.0023,0.0008,0.0007,0.0009,0.0008,0.0008,0.0007,0,0,0,0,0,0,0,0.0064,0.0065,0.0082,0.0081,0.008,0.006,0.0059,0.0049,0.0045,0.0059,0.0057,0.0057,0.003,0.0024,0.0022,0.0006,0.0009,0.0008,0.0007,0.0007,-0.001,-0.0009,0,0,0,0,0,0,0.0072,0.0065,0.0082,0.0081,0.0072,0.0061,0.006,0.0068,0.0046,0.0042,0.0058,0.0057,0.0027,0.0024,0.0021,0.0031,0.0008,0.0006,0.0006,-0.001,-0.001,-0.0009,0,0,0,0,0,0,0.0072,0.0074,0.0083,0.0073,0.0073,0.0062,0.007,0.0068,0.0065,0.0045,0.0042,0.0058,0.0026,0.0023,0.0019,0.0029,0.0006,0.0005,-0.001,-0.001,-0.001,0.0043,0,0,0,0,0,0,0.0071,0.0074,0.008,0.0074,0.0074,0.0087,0.0071,0.0068,0.0066,0.0064,0.0045,0.0041,0.0026,0.0021,0.0018,0.0027,0.0004,-0.0011,-0.001,-0.001,0.0041,0.0045,0.0049,0,0,0,0,0,0.007,0.0086,0.0081,0.0083,0.0084,0.0088,0.0086,0.0075,0.0066,0.007,0.0057,0.0042,0.0022,0.0021,0.0017,0.0026,-0.0011,-0.001,-0.001,0.0039,0.0044,0.0049,0,0,0,0,0,0,0.0077,0.0085,0.008,0.0096,0.0094,0.0085,0.0087,0.0079,0.0072,0.007,0.0048,0.0044,0.0042,0.0027,0.0026,0.0021,0.0002,0.0002,0.004,0.0045,0.0048,0.0069,0.0003,0,0,0,0,0,0.0082,0.0096,0.0095,0.0107,0.0108,0.0097,0.0096,0.0091,0.0084,0.008,0.0067,0.0052,0.0041,0.0038,0.0024,0.0026,0.0008,0.0028,0.0032,0.0035,0.0048,0.003,0.0034,-0.0007,-0.0007,-0.0007,0,0,0.0087,0.0093,0.01,0.0109,0.0105,0.0119,0.0096,0.0101,0.0113,0.0078,0.0088,0.0065,0.0043,0.0044,0.0042,0.0034,0.0035,0.0036,0.0039,0.0051,0.0031,0.0035,0.0039,-0.0007,-0.0007,-0.0007,0,0,0.0109,0.0111,0.0131,0.0136,0.0139,0.0134,0.0138,0.0134,0.0132,0.0135,0.0112,0.0099,0.0084,0.0073,0.0065,0.0082,0.0053,0.0074,0.0115,0.0097,0.0101,0.0104,0.0078,0.0078,0.008,0.008,0.008,0,0.0114,0.0145,0.0135,0.0158,0.017,0.0146,0.0171,0.0166,0.0161,0.0171,0.0146,0.0126,0.0099,0.0109,0.0109,0.0092,0.0075,0.0101,0.0104,0.0106,0.0108,0.0081,0.008,0.0082,0.0082,0.0082,0.0081,0,0.0156,0.0179,0.0192,0.0215,0.0221,0.024,0.0236,0.0242,0.0231,0.0228,0.0229,0.0188,0.0181,0.0163,0.014,0.0146,0.0126,0.0108,0.0095,0.0116,0.0085,0.0084,0.0086,0.0085,0.0084,0.0084,0,0,0.0178,0.0215,0.0221,0.025,0.0258,0.0275,0.0292,0.0313,0.0345,0.0311,0.0341,0.0297,0.0272,0.026,0.0224,0.0203,0.0187,0.0167,0.0164,0.0147,0.0144,0.0104,0.0097,0.0172,0.0172,0.0172,0.0114,0,0.0217,0.0277,0.0281,0.0337,0.0369,0.0362,0.0388,0.0401,0.0402,0.0423,0.0373,0.0377,0.0311,0.0306,0.0274,0.0218,0.0188,0.0204,0.0122,0.0119,0.0086,0.0096,0.0112,0.006,0.0113,0.0112,0.0112,0,0.0262,0.0301,0.0363,0.042,0.0434,0.0462,0.0515,0.0536,0.055,0.055,0.0536,0.0494,0.0457,0.0391,0.0301,0.0317,0.0236,0.0179,0.0175,0.0122,0.0077,0.0048,0.0055,-0.0089,0.011,0.011,0.011,0,0.03,0.0362,0.0419,0.0438,0.0489,0.0524,0.0551,0.0582,0.0622,0.0633,0.065,0.0598,0.0574,0.0473,0.0336,0.0324,0.023,0.0199,0.0083,0.0079,0.0069,0.0064,-0.0065,0.013,0.013,0.013,0.0131,0,0.0348,0.0396,0.0448,0.0485,0.0566,0.0581,0.0666,0.0688,0.0729,0.0791,0.0717,0.0737,0.0594,0.0513,0.0378,0.0229,0.0258,0.0096,0.0066,0.0085,0.0082,-0.0063,-0.0143,0.0128,0.0129,0.0129,0.013,0,0.0385,0.0412,0.049,0.0561,0.0588,0.065,0.0739,0.0807,0.0824,0.0898,0.0899,0.085,0.0747,0.0582,0.0426,0.0291,0.0057,0.008,0.0106,0.008,-0.0165,-0.0241,-0.0403,-0.0483,-0.0047,-0.0048,-0.0049,0,0.041,0.0453,0.0549,0.0604,0.0643,0.0732,0.0801,0.0852,0.0927,0.0971,0.1012,0.0931,0.0894,0.0635,0.0391,0.0152,0.0007,-0.0,-0.0026,-0.0174,-0.0282,-0.034,-0.0399,-0.0023,-0.0024,-0.0024,-0.0025,0,0.0464,0.0496,0.0563,0.0674,0.0759,0.0856,0.0957,0.1023,0.1091,0.1148,0.1196,0.1165,0.0916,0.0688,0.0352,0.0181,-0.0104,-0.0022,-0.0173,-0.0272,-0.0344,-0.0435,-0.0,-0.003,-0.003,-0.0029,-0.0029,-0.0029,0.0508,0.0563,0.065,0.0756,0.085,0.0966,0.1053,0.1161,0.1274,0.1367,0.1332,0.1327,0.0996,0.0541,0.0275,-0.017,-0.0181,-0.0295,-0.0376,-0.042,-0.0502,-0.009,-0.0159,-0.0159,-0.0159,-0.0159,-0.0159,0,0.0565,0.0628,0.0727,0.085,0.0952,0.0997,0.1148,0.1243,0.138,0.1478,0.1515,0.1372,0.0941,0.051,-0.0091,-0.0437,-0.056,-0.0626,-0.0695,-0.0739,-0.0363,-0.0367,-0.0485,-0.0485,-0.0485,-0.0485,-0.0485,-0.0485,0.0599,0.0697,0.0744,0.0909,0.0995,0.1138,0.1223,0.1369,0.148,0.1609,0.164,0.1623,0.1326,0.021,-0.0558,-0.0749,-0.098,-0.1046,-0.118,-0.0912,-0.0887,-0.0863,-0.0885,-0.1111,-0.1111,-0.1502,-0.1506,-0.1509]}],[{"header":{"parameterUnit":"m.s-1","parameterCategory":2,"la1":30.2991,"la2":30.254,"lo1":-89.0895,"lo2":-89.0444,"dy":0.0017,"dx":0.0017,"nx":28,"ny":28,"refTime":"2024-03-28T09:00:00:Z","depth":"2","parameterNumber":2,"parameterNumberName":"U-component_of_CURRENTS"},"data":[0,0,0,0,0,0,0,0,0,0,0,0,0,0,0,0,0,0,0,0,0,0,0,0,0,0,0,0,0,0,0,0,0,0,0,0,0,0,0,0,0,0,0,0,0,0,0,0,0,0,0,0,0,0,0,0,0,0,0.2275,0.2276,0,0.2279,0.2279,0.2279,0.2257,0.2256,0.2256,0.2255,0.224,0.224,0.224,0,0,0,0,0,0,0,0,0,0,0,0,0,0.2275,0.2275,0.2275,0.2276,0.2276,0.2279,0.2279,0.2279,0.2257,0.2256,0.2256,0.2255,0.224,0.224,0.224,0,0,0,0,0,0,0,0,0,0,0,0,0,0.2274,0.2275,0.2275,0.2267,0.2267,0.2279,0.2279,0.2278,0.2257,0.2256,0.2256,0.2255,0.224,0.224,0.224,0.2252,0,0,0.224,0.224,0,0,0,0,0,0,0,0,0.2274,0.2274,0.2268,0.2268,0.2267,0.2269,0.2273,0.2269,0.2257,0.2258,0.2255,0.2255,0.225,0.2249,0.2248,0.2251,0.2251,0.224,0.224,0.224,0.224,0,0,0,0,0,0,0,0.2274,0.2274,0.2274,0.2269,0.2268,0.2272,0.2271,0.2272,0.2255,0.2258,0.2257,0.2261,0.2249,0.2248,0.2247,0.225,0.224,0.224,0.224,0.224,0.2279,0.228,0,0,0,0,0,0,0.2278,0.2274,0.2274,0.2275,0.2272,0.2273,0.2271,0.2267,0.2255,0.2254,0.2262,0.226,0.2248,0.2248,0.2247,0.2282,0.224,0.224,0.224,0.2278,0.228,0.2281,0,0,0,0,0,0,0.2278,0.2278,0.2274,0.2277,0.2277,0.2273,0.2269,0.2267,0.2272,0.2259,0.2257,0.2269,0.2248,0.2247,0.2254,0.228,0.224,0.224,0.2277,0.2279,0.228,0.2338,0,0,0,0,0,0,0.2278,0.2277,0.2281,0.2277,0.2277,0.2285,0.227,0.2268,0.2276,0.2274,0.2264,0.2262,0.2247,0.2254,0.2254,0.2279,0.224,0.2276,0.2278,0.228,0.2335,0.2341,0.2347,0,0,0,0,0,0.2277,0.2283,0.228,0.2281,0.2279,0.2285,0.2286,0.228,0.2277,0.2281,0.2276,0.2262,0.2267,0.2255,0.2255,0.228,0.2275,0.2277,0.228,0.2332,0.234,0.2347,0,0,0,0,0,0,0.2285,0.2282,0.2278,0.2283,0.2286,0.2282,0.2291,0.2289,0.2289,0.229,0.2274,0.2271,0.229,0.2277,0.2264,0.2298,0.227,0.2272,0.231,0.2318,0.2324,0.2349,0.224,0,0,0,0,0,0.229,0.2292,0.229,0.2296,0.23,0.2299,0.2303,0.23,0.23,0.2299,0.2294,0.2293,0.23,0.2301,0.2302,0.2319,0.2332,0.2336,0.2342,0.2347,0.2368,0.2419,0.2432,0.2289,0.2289,0.2289,0,0,0.2294,0.2295,0.2295,0.2298,0.2301,0.2314,0.2299,0.2311,0.2324,0.2299,0.2317,0.2315,0.231,0.2329,0.2336,0.2321,0.2392,0.235,0.2355,0.2374,0.2423,0.2437,0.2449,0.229,0.229,0.229,0,0,0.2308,0.2306,0.2315,0.2322,0.2333,0.2333,0.234,0.2343,0.2347,0.2362,0.2355,0.2372,0.237,0.238,0.2383,0.2426,0.2425,0.2422,0.2474,0.2522,0.2535,0.2546,0.2569,0.2582,0.2423,0.2423,0.2423,0,0.2317,0.2321,0.232,0.2335,0.2346,0.2344,0.2361,0.237,0.2376,0.2396,0.2374,0.2413,0.24,0.2447,0.2457,0.2442,0.2463,0.2444,0.2532,0.2543,0.2554,0.2575,0.2589,0.2426,0.2426,0.2426,0.2425,0,0.2336,0.2345,0.2355,0.237,0.2384,0.2397,0.241,0.2432,0.2437,0.2449,0.2495,0.2487,0.2515,0.2511,0.2494,0.2567,0.2553,0.2536,0.2516,0.2572,0.259,0.2603,0.2431,0.243,0.2429,0.2428,0,0,0.2332,0.2361,0.2363,0.2377,0.2402,0.2413,0.2454,0.2489,0.253,0.2541,0.2596,0.2609,0.262,0.2625,0.2616,0.2651,0.2726,0.2629,0.263,0.2657,0.2827,0.2772,0.278,0.273,0.2733,0.2736,0.2805,0,0.2345,0.237,0.2388,0.2421,0.2433,0.2463,0.25,0.254,0.2572,0.2624,0.2647,0.2685,0.2659,0.2676,0.2715,0.2729,0.2766,0.2708,0.2765,0.2766,0.2715,0.2796,0.256,0.2599,0.2818,0.282,0.2821,0,0.235,0.2367,0.2395,0.2443,0.2455,0.2481,0.2552,0.259,0.2672,0.2704,0.2768,0.278,0.2845,0.2801,0.2885,0.2853,0.2854,0.2855,0.2857,0.28,0.2737,0.258,0.2615,0.2843,0.2841,0.284,0.2838,0,0.2325,0.2371,0.239,0.2405,0.2461,0.2495,0.2533,0.2614,0.2658,0.2763,0.2807,0.2887,0.2923,0.2963,0.2965,0.2938,0.3043,0.3,0.2953,0.2948,0.2757,0.273,0.3067,0.3067,0.3067,0.3067,0.3067,0,0.2316,0.2332,0.2381,0.239,0.2432,0.2485,0.2548,0.2612,0.2705,0.277,0.2845,0.2905,0.2969,0.3021,0.3017,0.3037,0.3091,0.2992,0.2979,0.2767,0.2742,0.2957,0.2943,0.3069,0.3069,0.3068,0.3068,0,0.2275,0.2304,0.2332,0.2394,0.2415,0.2447,0.2534,0.2587,0.2687,0.2778,0.2812,0.2938,0.3022,0.3062,0.3127,0.3095,0.3114,0.3097,0.2835,0.2792,0.297,0.2959,0.3069,0.3068,0.3068,0.3067,0.3066,0,0.2251,0.226,0.2319,0.2337,0.2363,0.2418,0.2458,0.2563,0.2621,0.2787,0.2825,0.2946,0.301,0.3097,0.307,0.3075,0.3116,0.2848,0.2758,0.3003,0.2979,0.2969,0.2959,0.2515,0.251,0.2506,0.2503,0,0.2215,0.2237,0.2262,0.2296,0.2334,0.2369,0.2435,0.2469,0.2605,0.268,0.2788,0.2854,0.2955,0.2869,0.2891,0.2855,0.2833,0.2765,0.3109,0.2556,0.2488,0.2462,0.2469,0.2466,0.247,0.2472,0.2474,0.2476,0.2188,0.2194,0.2231,0.2249,0.2287,0.2301,0.2298,0.2374,0.2434,0.2509,0.2652,0.2664,0.2703,0.2621,0.2541,0.2475,0.267,0.2533,0.2543,0.2558,0.2487,0.2421,0.2372,0.2375,0.2377,0.238,0.2382,0,0.2144,0.2155,0.218,0.2189,0.2179,0.2229,0.2264,0.223,0.2241,0.234,0.2394,0.2215,0.2179,0.2207,0.2055,0.2061,0.2006,0.1969,0.187,0.191,0.1945,0.1839,0.1554,0.1551,0.1548,0.1546,0,0,0.2126,0.2116,0.2114,0.2066,0.2071,0.2021,0.201,0.1976,0.1995,0.1955,0.1937,0.2096,0.2164,0.183,0.1793,0.1646,0.1758,0.158,0.2253,0.2178,0.2209,0.2292,0.2178,0,0,0,0,0]},{"header":{"parameterUnit":"m.s-1","parameterCategory":2,"la1":30.2991,"la2":30.254,"lo1":-89.0895,"lo2":-89.0444,"dy":0.0017,"dx":0.0017,"nx":28,"ny":28,"refTime":"2024-03-28T09:00:00:Z","depth":"2","parameterNumber":3,"parameterNumberName":"V-component_of_CURRENTS"},"data":[0,0,0,0,0,0,0,0,0,0,0,0,0,0,0,0,0,0,0,0,0,0,0,0,0,0,0,0,0,0,0,0,0,0,0,0,0,0,0,0,0,0,0,0,0,0,0,0,0,0,0,0,0,0,0,0,0,0,0.0179,0.0179,0,0.0162,0.0161,0.0161,0.0142,0.0142,0.0142,0.0142,0.0109,0.0108,0.0107,0,0,0,0,0,0,0,0,0,0,0,0,0,0.0154,0.0155,0.0179,0.0179,0.0178,0.0162,0.0161,0.0161,0.0142,0.0142,0.0142,0.0142,0.0109,0.0108,0.0107,0,0,0,0,0,0,0,0,0,0,0,0,0,0.0153,0.0155,0.0179,0.0168,0.0167,0.0162,0.0161,0.0161,0.0142,0.0142,0.0142,0.0142,0.0109,0.0108,0.0107,0.0105,0,0,0.0104,0.0103,0,0,0,0,0,0,0,0,0.0153,0.0153,0.017,0.0169,0.0168,0.0155,0.0141,0.0142,0.0142,0.015,0.0142,0.0141,0.0124,0.0121,0.0117,0.0104,0.0102,0.0104,0.0103,0.0103,0.0102,0,0,0,0,0,0,0,0.0153,0.0154,0.0171,0.017,0.0168,0.015,0.015,0.014,0.0137,0.015,0.0148,0.0149,0.0123,0.0118,0.0116,0.0102,0.0104,0.0103,0.0102,0.0102,0.0085,0.0085,0,0,0,0,0,0,0.016,0.0154,0.0171,0.017,0.0161,0.0151,0.0151,0.0158,0.0138,0.0135,0.0149,0.0148,0.012,0.0118,0.0115,0.0123,0.0103,0.0102,0.0101,0.0085,0.0085,0.0085,0,0,0,0,0,0,0.016,0.0162,0.0172,0.0162,0.0162,0.0152,0.016,0.0158,0.0155,0.0138,0.0134,0.0149,0.012,0.0117,0.0113,0.0121,0.0101,0.01,0.0084,0.0085,0.0085,0.0131,0,0,0,0,0,0,0.0159,0.0162,0.0168,0.0163,0.0163,0.0175,0.0161,0.0158,0.0156,0.0154,0.0136,0.0133,0.012,0.0115,0.0112,0.0119,0.0099,0.0084,0.0085,0.0085,0.0129,0.0132,0.0135,0,0,0,0,0,0.0159,0.0172,0.0168,0.017,0.0172,0.0175,0.0174,0.0164,0.0156,0.0159,0.0148,0.0134,0.0115,0.0114,0.0111,0.0118,0.0084,0.0084,0.0085,0.0127,0.0132,0.0135,0,0,0,0,0,0,0.0162,0.0171,0.0167,0.0182,0.018,0.0173,0.0175,0.0167,0.016,0.0159,0.0139,0.0135,0.0133,0.0119,0.0119,0.0113,0.0096,0.0096,0.0129,0.0133,0.0136,0.0154,0.0098,0,0,0,0,0,0.0166,0.018,0.018,0.0191,0.0192,0.0183,0.0182,0.0177,0.0171,0.0168,0.0156,0.0142,0.0131,0.0128,0.0115,0.0117,0.0097,0.0117,0.012,0.0123,0.0134,0.0113,0.0115,0.0087,0.0087,0.0087,0,0,0.017,0.0177,0.0183,0.0192,0.0189,0.0202,0.0182,0.0186,0.0197,0.0166,0.0174,0.0153,0.0133,0.0133,0.013,0.0124,0.0119,0.0124,0.0127,0.0136,0.0113,0.0116,0.0119,0.0087,0.0087,0.0087,0,0,0.0189,0.0191,0.0209,0.0215,0.0219,0.0214,0.0218,0.0214,0.0213,0.0216,0.0195,0.0182,0.0168,0.0157,0.0149,0.0163,0.0135,0.0156,0.0191,0.017,0.0172,0.0174,0.0146,0.0145,0.016,0.0161,0.0161,0,0.0192,0.0221,0.0213,0.0234,0.0245,0.0224,0.0247,0.0243,0.0238,0.0247,0.0224,0.0205,0.0181,0.0186,0.0187,0.0172,0.0154,0.0179,0.0175,0.0177,0.0178,0.0148,0.0147,0.0163,0.0163,0.0162,0.0162,0,0.023,0.0251,0.0262,0.0285,0.0291,0.0308,0.0304,0.031,0.0299,0.0296,0.0295,0.0257,0.025,0.0232,0.0213,0.0214,0.0195,0.018,0.0168,0.0184,0.0151,0.0148,0.0166,0.0165,0.0165,0.0164,0,0,0.0248,0.0284,0.0289,0.0316,0.0324,0.0339,0.0354,0.0372,0.0399,0.0368,0.0391,0.0351,0.0328,0.0317,0.0284,0.026,0.0239,0.0228,0.0226,0.0206,0.0189,0.0154,0.0148,0.0225,0.0225,0.0225,0.016,0,0.0282,0.0339,0.0343,0.0394,0.0424,0.0417,0.044,0.045,0.045,0.0465,0.0417,0.042,0.0362,0.0358,0.0324,0.0269,0.0237,0.0258,0.0173,0.017,0.0142,0.0145,0.0171,0.0115,0.0158,0.0157,0.0157,0,0.0324,0.036,0.0418,0.0469,0.0482,0.0507,0.0553,0.0571,0.0579,0.0578,0.0562,0.0523,0.0485,0.0427,0.0336,0.0354,0.0277,0.0221,0.0217,0.017,0.0131,0.0106,0.0108,0.0152,0.0153,0.0153,0.0153,0,0.0358,0.0415,0.0467,0.0485,0.0532,0.0564,0.0588,0.0613,0.0648,0.0653,0.0668,0.0613,0.0591,0.0491,0.0362,0.0354,0.0252,0.0226,0.0118,0.0115,0.0114,0.011,0.0155,0.0155,0.0155,0.0155,0.0155,0,0.0402,0.0446,0.0494,0.0529,0.0603,0.0616,0.0693,0.0711,0.0745,0.0801,0.073,0.0745,0.0606,0.0524,0.0396,0.0251,0.0274,0.0128,0.0099,0.0128,0.0126,0.0143,0.0142,0.0153,0.0153,0.0154,0.0154,0,0.0435,0.0461,0.0533,0.0599,0.0624,0.0681,0.0764,0.0825,0.0839,0.0905,0.0906,0.0852,0.0749,0.0588,0.0432,0.0305,0.0163,0.01,0.0138,0.0115,0.003,0.0033,-0.0016,-0.0018,-0.002,-0.0021,-0.0022,0,0.0458,0.0498,0.0588,0.064,0.0677,0.076,0.0825,0.0871,0.0939,0.0974,0.1011,0.0928,0.0888,0.063,0.0397,0.0167,0.0139,0.0033,0.0016,0.0037,0.0014,0.0019,0.0023,0.0028,0.0028,0.0028,0.0027,0,0.0507,0.0538,0.0601,0.0708,0.0789,0.088,0.0976,0.1037,0.1098,0.1148,0.1188,0.1153,0.0908,0.0681,0.0357,0.0205,0.0072,0.0015,0.0038,0.0066,0.0074,0.0053,0.0057,0.0023,0.0024,0.0024,0.0024,0.0024,0.0548,0.0601,0.0686,0.0788,0.0878,0.0989,0.1073,0.1172,0.1277,0.1351,0.1313,0.1262,0.1005,0.0589,0.0308,0.0018,0.004,-0.0055,-0.0051,-0.0047,-0.0032,-0.0027,-0.0094,-0.0095,-0.0095,-0.0095,-0.0095,0,0.0604,0.0665,0.076,0.0881,0.098,0.1023,0.1167,0.1254,0.138,0.1433,0.1456,0.1205,0.0933,0.0623,0.0188,-0.0065,-0.0071,-0.0144,-0.0091,-0.0085,-0.008,-0.0065,-0.0137,-0.0138,-0.0139,-0.014,0,0,0.0636,0.0732,0.0779,0.0942,0.1027,0.1169,0.1252,0.1379,0.1453,0.1509,0.1475,0.1395,0.1024,0.0702,0.0358,0.0105,0.0071,0.006,0.0125,0.0236,0.0244,0.0006,0.004,0,0,0,0,0]}],[{"header":{"parameterUnit":"m.s-1","parameterCategory":2,"la1":30.2991,"la2":30.254,"lo1":-89.0895,"lo2":-89.0444,"dy":0.0017,"dx":0.0017,"nx":28,"ny":28,"refTime":"2024-03-28T09:00:00:Z","depth":"4","parameterNumber":2,"parameterNumberName":"U-component_of_CURRENTS"},"data":[0,0,0,0,0,0,0,0,0,0,0,0,0,0,0,0,0,0,0,0,0,0,0,0,0,0,0,0,0,0,0,0,0,0,0,0,0,0,0,0,0,0,0,0,0,0,0,0,0,0,0,0,0,0,0,0,0,0,0.1506,0.1506,0,0.1553,0.1554,0.1554,0.1591,0.1591,0.1592,0.1593,0.1647,0.1648,0.1648,0,0,0,0,0,0,0,0,0,0,0,0,0,0.1446,0.1446,0.1506,0.1506,0.1507,0.1553,0.1554,0.1554,0.1591,0.1591,0.1592,0.1593,0.1646,0.1647,0.1649,0,0,0,0,0,0,0,0,0,0,0,0,0,0.1478,0.1447,0.1505,0.1533,0.1536,0.1553,0.1554,0.1554,0.1591,0.1591,0.1592,0.1593,0.1646,0.1647,0.1649,0.1641,0,0,0.1653,0.1654,0,0,0,0,0,0,0,0,0.1476,0.148,0.1528,0.1531,0.1534,0.1569,0.1553,0.1584,0.159,0.1567,0.1593,0.1593,0.1622,0.1625,0.1629,0.1643,0.1646,0.1653,0.1654,0.1654,0.1655,0,0,0,0,0,0,0,0.1474,0.1478,0.1522,0.1529,0.1533,0.1543,0.1548,0.1559,0.1588,0.157,0.1573,0.1581,0.1624,0.1628,0.1631,0.1646,0.1653,0.1654,0.1655,0.1656,0.1741,0.1742,0,0,0,0,0,0,0.1472,0.1476,0.1521,0.1524,0.1509,0.1543,0.1549,0.1555,0.1588,0.1594,0.1581,0.1583,0.1625,0.1629,0.1633,0.1704,0.1654,0.1656,0.1657,0.1739,0.1741,0.1743,0,0,0,0,0,0,0.147,0.1475,0.1519,0.1503,0.151,0.1543,0.155,0.1556,0.1592,0.1597,0.1603,0.1615,0.1626,0.1631,0.1671,0.1703,0.1656,0.1658,0.1738,0.174,0.1742,0.1796,0,0,0,0,0,0,0.1468,0.1474,0.1494,0.1503,0.1511,0.1546,0.155,0.1556,0.1595,0.1599,0.1627,0.1631,0.1627,0.1669,0.1673,0.1705,0.1659,0.1736,0.1739,0.1741,0.1792,0.1799,0.1806,0,0,0,0,0,0.1466,0.1482,0.1494,0.15,0.1531,0.1547,0.1552,0.1577,0.1596,0.1612,0.1638,0.1632,0.1689,0.1671,0.1675,0.1708,0.1735,0.1738,0.1741,0.1789,0.1798,0.1805,0,0,0,0,0,0,0.1467,0.1488,0.1501,0.1524,0.1544,0.1554,0.1579,0.1595,0.1627,0.1644,0.1648,0.1654,0.1703,0.1698,0.1679,0.1741,0.1711,0.1715,0.1747,0.1755,0.1762,0.1767,0.166,0,0,0,0,0,0.1476,0.1496,0.1512,0.1535,0.1548,0.1571,0.1589,0.1605,0.1628,0.1645,0.1666,0.1691,0.1712,0.1729,0.1745,0.1777,0.1775,0.1801,0.1808,0.1814,0.1821,0.1851,0.1861,0.1753,0.1753,0.1753,0,0,0.1484,0.1499,0.1512,0.1538,0.1559,0.158,0.1584,0.1619,0.1645,0.1645,0.17,0.1719,0.1728,0.1766,0.1787,0.177,0.1843,0.1818,0.1823,0.1827,0.1855,0.1865,0.1875,0.1755,0.1755,0.1755,0,0,0.1498,0.1525,0.1544,0.1562,0.1598,0.161,0.1627,0.1658,0.1684,0.1728,0.174,0.1781,0.1813,0.1826,0.1835,0.1889,0.188,0.1899,0.1937,0.1965,0.1974,0.1982,0.1987,0.1995,0.19,0.19,0.19,0,0.1512,0.1533,0.1553,0.1575,0.1598,0.1627,0.1652,0.1677,0.1721,0.175,0.1756,0.1831,0.184,0.1885,0.1906,0.1905,0.1913,0.1904,0.1974,0.1982,0.1989,0.1992,0.2,0.1903,0.1903,0.1902,0.1902,0,0.1527,0.1559,0.1574,0.161,0.1637,0.1665,0.1698,0.174,0.178,0.1806,0.1877,0.1895,0.194,0.195,0.1945,0.2005,0.1992,0.198,0.1951,0.2003,0.2003,0.2011,0.1907,0.1906,0.1905,0.1905,0,0,0.1517,0.1574,0.1583,0.161,0.1661,0.1681,0.1736,0.1787,0.1835,0.1885,0.1944,0.199,0.2018,0.2029,0.2037,0.2059,0.2113,0.2048,0.2048,0.205,0.2169,0.2043,0.2038,0.212,0.2121,0.2123,0.2146,0,0.1527,0.157,0.16,0.1653,0.1677,0.1727,0.1773,0.1829,0.1882,0.1945,0.1985,0.2045,0.2041,0.2077,0.2102,0.2116,0.2137,0.2107,0.2121,0.2121,0.2001,0.2044,0.2129,0.2151,0.2153,0.2154,0.2155,0,0.1525,0.1558,0.1609,0.1678,0.1696,0.174,0.1829,0.1876,0.1964,0.2008,0.2078,0.211,0.2171,0.2152,0.2207,0.2193,0.2192,0.2189,0.2189,0.2059,0.2009,0.2091,0.2168,0.2167,0.2166,0.2165,0.2165,0,0.1493,0.1562,0.1607,0.163,0.1712,0.1762,0.1818,0.1907,0.1959,0.2062,0.2111,0.2181,0.223,0.2249,0.2258,0.2245,0.2297,0.2272,0.2154,0.2144,0.2226,0.2218,0.2306,0.2306,0.2306,0.2306,0.2306,0,0.1471,0.1511,0.1606,0.1629,0.1699,0.1765,0.1849,0.1917,0.2013,0.2072,0.2152,0.2199,0.2262,0.2295,0.2285,0.2242,0.2324,0.2166,0.2147,0.2247,0.224,0.2231,0.2222,0.2307,0.2306,0.2306,0.2306,0,0.142,0.1481,0.1542,0.1646,0.1686,0.1742,0.1862,0.191,0.2019,0.2099,0.2138,0.2238,0.228,0.231,0.2339,0.2266,0.224,0.2203,0.2308,0.2293,0.2058,0.2052,0.2064,0.206,0.2057,0.2054,0.2051,0,0.1392,0.1421,0.1547,0.1588,0.1644,0.1735,0.1787,0.1905,0.195,0.2102,0.2121,0.2217,0.2263,0.2191,0.2244,0.221,0.2183,0.2146,0.2098,0.2056,0.2037,0.2036,0.2034,0.2046,0.2045,0.2044,0.2043,0,0.1341,0.1407,0.1458,0.1544,0.1613,0.167,0.1757,0.1778,0.1905,0.202,0.2046,0.2061,0.2104,0.2109,0.2101,0.2076,0.2156,0.2109,0.2115,0.2069,0.2034,0.2017,0.202,0.2031,0.2033,0.2034,0.2034,0,0.1313,0.1337,0.1418,0.1474,0.1555,0.1576,0.1634,0.1675,0.1733,0.1887,0.1897,0.1991,0.2089,0.2042,0.2038,0.2002,0.1963,0.1878,0.1896,0.191,0.1848,0.178,0.1687,0,0,0,0,0,0.1271,0.1281,0.1334,0.1381,0.1452,0.1492,0.1593,0.1648,0.177,0.1738,0.1808,0.1835,0.1839,0.1891,0.1819,0.1975,0.1975,0.1883,0.1888,0.1963,0.1977,0.1919,0,0,0,0,0,0,0.1242,0.1292,0.13,0.1285,0.1294,0.135,0.1407,0.1493,0.1477,0.161,0.1618,0.1717,0.1744,0.1849,0.1779,0.1793,0.1756,0.1945,0.194,0.1955,0.1968,0.1979,0.1924,0,0,0,0,0]},{"header":{"parameterUnit":"m.s-1","parameterCategory":2,"la1":30.2991,"la2":30.254,"lo1":-89.0895,"lo2":-89.0444,"dy":0.0017,"dx":0.0017,"nx":28,"ny":28,"refTime":"2024-03-28T09:00:00:Z","depth":"4","parameterNumber":3,"parameterNumberName":"V-component_of_CURRENTS"},"data":[0,0,0,0,0,0,0,0,0,0,0,0,0,0,0,0,0,0,0,0,0,0,0,0,0,0,0,0,0,0,0,0,0,0,0,0,0,0,0,0,0,0,0,0,0,0,0,0,0,0,0,0,0,0,0,0,0,0,0.0199,0.0199,0,0.0194,0.0194,0.0194,0.0191,0.0191,0.0191,0.0191,0.0175,0.0174,0.0174,0,0,0,0,0,0,0,0,0,0,0,0,0,0.0178,0.0179,0.0199,0.0199,0.0199,0.0194,0.0194,0.0194,0.0191,0.0191,0.0191,0.0191,0.0175,0.0175,0.0174,0,0,0,0,0,0,0,0,0,0,0,0,0,0.0181,0.0179,0.0199,0.0198,0.0198,0.0194,0.0194,0.0194,0.0191,0.0191,0.0191,0.0191,0.0175,0.0175,0.0174,0.0167,0,0,0.0172,0.0171,0,0,0,0,0,0,0,0,0.0181,0.0181,0.0198,0.0198,0.0198,0.0194,0.0181,0.0185,0.0191,0.0193,0.0191,0.0191,0.0181,0.018,0.0177,0.0167,0.0166,0.0172,0.0171,0.0171,0.0171,0,0,0,0,0,0,0,0.0181,0.0182,0.0196,0.0198,0.0198,0.0188,0.0189,0.0181,0.0185,0.0192,0.0192,0.0193,0.0181,0.0178,0.0177,0.0166,0.0172,0.0171,0.017,0.017,0.0154,0.0154,0,0,0,0,0,0,0.0184,0.0182,0.0197,0.0196,0.019,0.0188,0.0189,0.0195,0.0186,0.0185,0.0193,0.0193,0.0179,0.0178,0.0176,0.018,0.0171,0.017,0.017,0.0154,0.0154,0.0154,0,0,0,0,0,0,0.0184,0.0186,0.0197,0.0189,0.019,0.0189,0.0195,0.0194,0.0197,0.0186,0.0185,0.0197,0.0179,0.0177,0.0177,0.0179,0.017,0.0169,0.0154,0.0154,0.0154,0.0179,0,0,0,0,0,0,0.0184,0.0186,0.0191,0.019,0.0191,0.0199,0.0195,0.0194,0.0197,0.0197,0.0189,0.0187,0.0179,0.0178,0.0176,0.0178,0.0168,0.0154,0.0154,0.0154,0.0178,0.018,0.0182,0,0,0,0,0,0.0183,0.019,0.0191,0.0193,0.0198,0.02,0.0199,0.0198,0.0197,0.02,0.0196,0.0188,0.0177,0.0178,0.0175,0.0177,0.0154,0.0154,0.0154,0.0178,0.018,0.0182,0,0,0,0,0,0,0.018,0.019,0.0192,0.0201,0.0202,0.02,0.0202,0.0201,0.02,0.0201,0.0191,0.0189,0.0188,0.0179,0.018,0.0171,0.0163,0.0162,0.0181,0.0183,0.0185,0.0192,0.0168,0,0,0,0,0,0.0183,0.0194,0.0197,0.0204,0.0206,0.0205,0.0205,0.0206,0.0205,0.0205,0.02,0.0193,0.0185,0.0182,0.0175,0.0172,0.0151,0.017,0.0171,0.0173,0.0177,0.0145,0.0144,0.0154,0.0154,0.0154,0,0,0.0183,0.0191,0.0196,0.0204,0.0205,0.0213,0.0206,0.0211,0.0218,0.0203,0.021,0.0199,0.0185,0.0183,0.0181,0.0177,0.0157,0.0173,0.0174,0.0178,0.0145,0.0144,0.0143,0.0154,0.0154,0.0154,0,0,0.0192,0.0197,0.021,0.0215,0.0222,0.0221,0.0224,0.0226,0.0228,0.0232,0.0221,0.0212,0.0206,0.0194,0.0187,0.0192,0.0167,0.0189,0.0204,0.0173,0.0172,0.0171,0.0137,0.0133,0.019,0.019,0.019,0,0.0192,0.0212,0.0212,0.0226,0.0233,0.0227,0.0241,0.0239,0.0241,0.0245,0.0239,0.0222,0.021,0.0201,0.0204,0.0195,0.0174,0.0199,0.0175,0.0174,0.0172,0.0138,0.0132,0.0191,0.0191,0.0191,0.0191,0,0.0212,0.0228,0.0235,0.0253,0.0257,0.0269,0.0269,0.0274,0.0274,0.0271,0.0266,0.0245,0.0236,0.0226,0.0218,0.0202,0.0189,0.0181,0.0171,0.0173,0.0136,0.013,0.0193,0.0193,0.0192,0.0192,0,0,0.0218,0.0245,0.025,0.0268,0.0276,0.0286,0.0294,0.0302,0.0316,0.03,0.0305,0.0283,0.0271,0.0262,0.0242,0.0214,0.018,0.0198,0.0196,0.0166,0.0109,0.0108,0.0101,0.0169,0.0168,0.0168,0.0086,0,0.0237,0.0273,0.0278,0.0309,0.0328,0.0327,0.0339,0.0343,0.0342,0.0344,0.031,0.031,0.0284,0.0283,0.0248,0.0203,0.0167,0.0203,0.0111,0.0108,0.0108,0.0095,0.0165,0.0082,0.008,0.0079,0.0079,0,0.0259,0.0283,0.032,0.0351,0.0359,0.0377,0.0401,0.0411,0.0405,0.0403,0.0385,0.036,0.0322,0.0297,0.0208,0.0234,0.0176,0.013,0.0126,0.0114,0.0096,0.0081,0.0068,0.0068,0.0069,0.007,0.0071,0,0.0276,0.0313,0.0347,0.0359,0.0389,0.0411,0.0428,0.0436,0.0459,0.0446,0.0455,0.0396,0.0381,0.0294,0.0205,0.0208,0.0097,0.0087,0.0024,0.0022,0.0037,0.0039,0.0014,0.0014,0.0014,0.0014,0.0015,0,0.0298,0.0327,0.0366,0.0389,0.0439,0.0446,0.0497,0.0503,0.0518,0.0551,0.0494,0.0496,0.0382,0.0307,0.021,0.0101,0.0098,0.0023,0.0002,0.0049,0.0053,0.0032,0.0035,0.0011,0.0012,0.0013,0.0013,0,0.0313,0.0336,0.0384,0.043,0.0453,0.0492,0.0557,0.0591,0.0598,0.0635,0.0635,0.0574,0.0482,0.0351,0.0211,0.0126,0.0009,-0.0033,0.0023,0.0007,-0.0049,-0.0044,-0.0111,-0.0112,-0.0112,-0.0113,-0.0113,0,0.0323,0.0351,0.0422,0.0464,0.0494,0.0557,0.0604,0.0633,0.0674,0.0688,0.0705,0.063,0.0573,0.0368,0.0223,0.0021,-0.0006,-0.0076,-0.0063,-0.0048,-0.0062,-0.0056,-0.005,-0.0114,-0.0114,-0.0114,-0.0115,0,0.0343,0.0374,0.0418,0.0508,0.0572,0.064,0.0711,0.0743,0.078,0.0783,0.0773,0.0668,0.0557,0.0387,0.0225,0.0081,-0.0036,-0.0083,-0.0083,-0.007,-0.0053,-0.0065,-0.0058,-0.0117,-0.0116,-0.0116,-0.0116,0,0.0365,0.0401,0.047,0.0551,0.0631,0.0707,0.0738,0.0789,0.0824,0.0835,0.0831,0.0706,0.0636,0.0418,0.0271,0.0126,0.0091,0.004,0.0033,0.0033,0.0098,0.0143,0.0119,0,0,0,0,0,0.0386,0.0436,0.0508,0.0599,0.0678,0.0733,0.0804,0.0827,0.0858,0.0863,0.0853,0.0751,0.0545,0.0449,0.0306,0.0246,0.0053,0.0071,-0.0013,-0.0128,-0.0126,-0.0075,0,0,0,0,0,0,0.0402,0.0473,0.0511,0.0627,0.0697,0.079,0.0839,0.0859,0.0861,0.0866,0.0757,0.0713,0.0507,0.0634,0.0306,0.0261,0.0186,-0.0024,-0.0028,-0.013,-0.0128,-0.0126,-0.0072,0,0,0,0,0]}]]